www.pogodaiklimat.ru

Погода и климат >> Архив погоды >> Россия >> Иркутская область >> Казачинск


ПОГОДА в Казачинске

  • Прогноз погоды в Казачинске
  • Монитор погоды в Казачинске

АРХИВ ПОГОДЫ в Казачинске

Время (UTC), дата Ветер
(напр.,м/с)
 
Видим.   Явления Облачность Т
(С)
Тd
(С)
f
(%)
Тe
(С)
Тes
(С)
Комфортность P
(гПа)
Po
(гПа)
Тmin
(С)
Tmax
(С)
R
(мм)
R24
(мм)
S
(см)
18 10.09 ЮЗ 1 н/о {ливн. осадки} 10/5 600 м
[Cb cap As op]
+9.9 +9.3 96 +9 +9 1011.4 969.1
21 10.09 ЮЗ 1 н/о 9/9 600 м
[Cb cap]
+9.7 +9.1 96 +9 +9 1012.1 969.7
00 11.09 ЮЗ 2 50 км 9/9 600 м
[Cb cap]
+10.2 +9.2 94 +9 +9 1013.1 970.7 +8.7 2
03 11.09 Ю 2 50 км 9/9 600 м
[Cb cap]
+12.4 +9.2 81 +11 +12 1013.2 971.1
06 11.09 Ю 4 50 км 10/8 600 м
[Cb cap As trans]
+13.8 +7.9 68 +12 +13 1011.9 970.1
09 11.09 ЮВ 2 50 км 10/8 600 м
[Cb cap As op]
+14.1 +8.9 71 +14 +14 1010.2 968.5
12 11.09 СЗ 1 н/о 10/8 600 м
[Cb cap As op]
+11.4 +10.1 92 +11 +11 1009.9 967.8 +14.5
15 11.09 штиль 0 н/о 10/8 600 м
[Cb cap As op]
+10.2 +9.4 95 +9 +9 1008.4 966.2
18 11.09 Ю 1 н/о слаб. ливневой дождь 10/10 600 м
[Cb cap]
+9.8 +9.2 96 +9 +9 1007.3 965.1
21 11.09 ЮЗ 1 н/о {ливн. осадки} 10/10 600 м
[Cb cap]
+8.8 +8.3 97 +8 +8 1006.6 964.3
00 12.09 ЮЗ 1 50 км {ливн. осадки} 9/8 600 м
[Cb cap Ci fib]
+9.3 +8.6 95 +9 +9 1007.0 964.7 +8.5 1
03 12.09 СЗ 1 50 км 9/9 300 м
[Cb cap]
+12.4 +7.5 72 +13 +13 1007.3 965.5
06 12.09 З 4 50 км 8/6 600 м
[Cb cap Ci fib]
+14.1 +3.2 48 +13 +15 1007.0 965.4
09 12.09 З 4 50 км 9/9 600 м
[Cb cap]
+13.6 +2.2 46 +12 +12 1008.0 966.2
12 12.09 З 1
{11}
н/о 9/3 600 м
[Cb cap Ci fib]
+6.8 +2.8 76 +6 +6 1011.9 969.1 +16.1
15 12.09 СЗ 2
{11}
н/о 9/5 600 м
[Cb cap Ci fib]
+5.8 +0.9 71 +4 +4 1014.6 971.4
18 12.09 штиль 0 н/о 9/9 600 м
[Cb cap]
+3.6 -2.7 63 +3 +3 1016.4 972.8
21 12.09 штиль 0 н/о 9/8 600 м
[Cb cap Ci fib]
+1.0 -1.0 86 -0 -0 1016.5 972.5
00 13.09 ЮЗ 1 50 км 8/4 600 м
[Cb cap Ci fib]
+3.0 -1.0 75 +2 +2 1015.8 972.1 +0.5
03 13.09 ЮЗ 3 50 км 9/4 600 м
[Cb cap Ci fib]
+7.5 -3.6 45 +5 +8 1013.4 970.5
06 13.09 ЮЗ 4
{12}
50 км 9/9 600 м
[Cb cap]
+8.1 -2.7 46 +5 +6 1010.6 967.9
09 13.09 Ю 3
{11}
50 км в посл. час ливневой снег 9/8 600 м
[Cb cap Ci fib]
+7.3 +2.1 70 +5 +5 1008.5 965.8
12 13.09 ЮЗ 4
{16}
н/о {ливн. осадки} 8/8 600 м
[Cb cap Ci fib]
+3.8 +2.4 91 -1 -1 1009.5 966.3 +9.4 1
15 13.09 СЗ 1 н/о 8/8 600 м
[Cb cap]
+1.2 +0.6 96 -1 -1 1009.7 966.0
18 13.09 ЮЗ 1 н/о 3/3 600 м
[Cb cap]
-0.1 -0.4 98 -2 -2 1008.9 965.1
21 13.09 ЮЗ 2 н/о 8/8 600 м
[Cb cap]
+1.6 +0.4 92 -2 -2 1007.0 963.6
00 14.09 Ю 3 50 км 10/8 600 м
[Cb cap Cs]
+3.0 +0.3 82 -1 -1 1006.0 962.8 -0.1
03 14.09 ЮЗ 4
{11}
50 км 10/10 600 м
[Cb cap]
+5.0 -1.4 63 +1 +1 1005.3 962.4
06 14.09 З 5-13
{15}
50 км в посл. час ливневой снег 9/9 600 м
[Cb cap Ci fib]
+1.5 -2.1 77 -4 -4 1007.8 964.2
09 14.09 З 3
{14}
10 км слаб. ливневой снег 10/10 600 м
[Cb cap]
+1.3 -3.2 72 -3 -3 1011.4 967.6
12 14.09 З 5-10
{13}
н/о в посл. час ливневой снег 9/9 600 м
[Cb cap]
+0.9 -5.0 65 -5 -5 1014.9 970.9 +5.3 2
15 14.09 ЮЗ 1
{11}
н/о 9/4 600 м
[Cb cap Ci fib]
-0.9 -4.2 78 -3 -3 1018.0 973.6
18 14.09 ЮЗ 2 н/о 8/8 600 м
[Cb cap]
-1.2 -4.6 78 -5 -5 1018.2 973.8
21 14.09 Ю 2 н/о 9/9 600 м
[Sc]
-0.8 -5.1 73 -4 -4 1017.5 973.2
00 15.09 Ю 3 50 км 9/9 600 м
[Sc]
+0.9 -4.2 69 -3 -3 1017.5 973.5 -2.0 <0.5
03 15.09 Ю 4 50 км 10/10 600 м
[Cb cap]
+3.1 -3.5 62 -1 -1 1016.8 973.1
06 15.09 Ю 4 50 км 10/10 600 м
[Cb cap]
+4.4 -3.2 58 +1 +1 1015.4 972.0
09 15.09 Ю 4 50 км {ливн. осадки} 10/8 600 м
[Cb cap As op]
+4.7 -1.8 63 +1 +1 1014.1 970.8
12 15.09 Ю 3
{10}
н/о слаб. ливневой дождь 10/8 600 м
[Cb cap As op]
+2.8 +0.1 82 -1 -1 1013.6 970.1 +5.5 0.4
15 15.09 Ю 3 н/о {ливн. осадки} 10/8 600 м
[Cb cap As op]
+2.7 -0.3 81 -1 -1 1012.3 968.8
18 15.09 ЮЗ 2 н/о слаб. ливневой дождь 10/8 600 м
[Cb cap As op]
+2.2 +1.0 92 -1 -1 1010.5 966.9
21 15.09 ЮВ 1 н/о {ливн. осадки} 8/8 600 м
[Cb cap]
+1.5 +0.9 96 -1 -1 1011.0 967.3
00 16.09 Ю 1 10 км слаб. ливневой дождь 9/9 600 м
[Cb cap]
+1.2 +0.8 97 -1 -1 1012.7 969.0 -0.0 1
03 16.09 СЗ 2 50 км 9/8 600 м
[Cb cap Ci fib]
+5.1 -0.8 66 +3 +4 1014.1 970.9
06 16.09 СЗ 5 50 км 9/9 600 м
[Cb cap Ci fib]
+6.8 -2.8 50 +3 +4 1015.4 972.3
09 16.09 СЗ 4 50 км 8/8 600 м
[Cb cap]
+6.4 -5.2 43 +3 +4 1017.4 974.1
12 16.09 СЗ 2 н/о 8/3 600 м
[Cb cap Ci fib]
+2.4 -2.8 69 -0 -0 1021.8 977.8 +8.6
15 16.09 Ю 1 н/о 8/8 600 м
[Cb cap]
-0.5 -2.3 88 -3 -3 1024.8 980.2
18 16.09 ЮЗ 2 н/о 9/9 600 м
[Cb cap]
-0.3 -2.3 86 -4 -4 1026.0 981.4
21 16.09 Ю 1 н/о 3/3 600 м
[Cb cap]
-3.8 -4.4 96 -6 -6 1028.1 982.8
00 17.09 Ю 1 50 км 8/3 600 м
[Cb cap Ci fib]
-2.0 -2.8 94 -4 -4 1028.8 983.8 -3.9
03 17.09 ЮЗ 3 50 км 9/9 600 м
[Cb cap]
+4.7 -3.6 55 +2 +2 1027.7 983.8
06 17.09 Ю 4 50 км 9/9 600 м
[Cb cap]
+8.6 -4.1 40 +6 +7 1025.1 981.9
09 17.09 Ю 3 50 км 9/9 600 м
[Cb cap]
+9.2 -3.0 42 +7 +8 1023.8 980.7
12 17.09 ЮЗ 1 н/о в посл. час ливневой дождь 10/10 600 м
[Cb cap]
+6.4 +0.1 64 +6 +6 1023.8 980.4 +10.0 0.1
15 17.09 ЮЗ 2 н/о 10/10 600 м
[Cb cap]
+6.7 -0.4 60 +5 +5 1023.7 980.2

 

Местоположение метеостанции Казачинск (Иркутская область, Россия): широта 56.32 долгота 107.60 высота над уровнем моря 357 м.

В архиве по умолчанию представлена погода в Казачинске за последнюю неделю. Архивные данные за месяц целиком и за предыдущие месяцы, начиная с января 2011 года, Вы можете получить, выбрав интересующий диапазон дат из раскрывающегося списка и нажав кнопку "Ввод!".


*Определитесь, кто Вы:
робот инопланетянин человек

Внимание! Время в таблицах - всемирное. Для получения местного времени необходимо прибавить поправку, которая равна 8 ч.

Смотрите также архив погоды в соседних городах и на ближайших метеорологических станциях:

Погода в Даване (Бурятия, Россия) (98 км)
Погода в Орлинге (Иркутская область, Россия) (115 км)
Погода в Усть-Куте (Иркутская область, Россия) (123 км)
Погода в Караме (Иркутская область, Россия) (130 км)
Погода в Нижнеангарске (Бурятия, Россия) (132 км)
Погода в Киренске (Иркутская область, Россия) (163 км)
Погода в Максимово (Иркутская область, Россия) (186 км)
Погода в Томпе (Бурятия, Россия) (188 км)
Погода в Тырке (Иркутская область, Россия) (208 км)
Погода в Жигалове (Иркутская область, Россия) (231 км)

Пояснения к столбцам:

Ветер - указаны скорость ветра в м/с - средняя за 10 мин, порывы в срок и между сроками (в фигурных скобках) и направление, откуда дует ветер: С - северный, СВ - северо-восточный, В - восточный, ЮВ - юго-восточный, Ю - южный, ЮЗ - юго-западный, З - западный, СЗ - северо-западный.
Видимость - горизонтальная дальность видимости в метрах или километрах. При видимости от 1 до 10 км при отсутствии осадков обычно наблюдается дымка, при ухудшении видимости до 1 км и менее - туман. В сухую погоду видимость может ухудшаться дымом, пылью или мглою.
Явления - указаны атмосферные явления, наблюдавшиеся в срок или в последний час перед сроком; фигурными скобками обозначены явления, наблюдавшиеся между сроками (за 1-3 часа до срока); квадратными скобками обозначены град или гололедные отложения с указанием их диаметра в мм.
Облачность - указаны через наклонную черту общая и нижняя облачность в баллах и высота нижней границы облаков в метрах; квадратными скобками обозначены формы облаков: Ci - перистые, Cs - перисто-слоистые, Cc - перисто-кучевые, Ac - высококучевые, As - высокослоистые, Sc - слоисто-кучевые, Ns - слоисто-дождевые, Cu - кучевые, Cb - кучево-дождевые. Подробнее классификацию облаков см. в Атласе облаков (PDF).
T - Температура воздуха - температура, измеренная на высоте 2 м над землей.
Td - Температура точки росы - температура, при понижении до которой содержащийся в воздухе водяной пар достигнет насыщения.
f - Относительная влажность воздуха - влажноcть воздуха, измеренная на высоте 2 м над землей.
Te - Эффективная температура - температура, которую ощущает одетый по сезону человек в тени. Характеристика душности погоды. При расчете учитывается влияние влажности воздуха и скорости ветра на теплоощущения человека.
Tes - Эффективная температура на солнце - температура, которую ощущает человек, с поправкой на солнечный нагрев. Характеристика знойности погоды. Зависит от высоты солнца над горизонтом, облачности и скорости ветра. Ночью, в пасмурную погоду, а также при ветре 12 м/с и более поправка равна нулю.
P - Атмосферное давление - приведенное к уровню моря атмосферное давление.
Po - Атмосферное давление - измеренное на уровне метеостанции атмосферное давление.
Tmin - Минимальная температура - минимум температуры воздуха на высоте 2 м над землей.
Tmax - Максимальная температура - максимум температуры воздуха на высоте 2 м над землей.
R - Количество осадков - Количество выпавших осадков за период времени, мм. При наведении курсора мыши на число - период времени, за который выпало указанное количество осадков.
R24 - Количество осадков - Количество выпавших осадков за 24 часа, мм.
S - Снежный покров - Высота снежного покрова, см. При наведении курсора мыши на число - состояние снежного покрова и степень покрытия местности в баллах.